Frederick, OK

2:21 PM CDT on April 29, 2017 (GMT -0500)
Frederick Municipal

Weather History for KFDR - April, 2013

Change the Weather History Date:

Monday, April 29, 2013

  Actual Average (KLTS) Record (KLTS)
Temperature  
Mean Temperature 74 °F -  
Max Temperature 91 °F 76 °F 92 °F (2013)
Min Temperature 57 °F 52 °F 42 °F (2008)
Cooling Degree Days 9    
Growing Degree Days 24 (Base 50)    
Moisture  
Dew Point 48 °F    
Average Humidity 48    
Maximum Humidity 90    
Minimum Humidity 15    
Precipitation  
Precipitation 0.00 in - - ()
Sea Level Pressure  
Sea Level Pressure 29.72 in    
Wind  
Wind Speed 12 mph (SSE)    
Max Wind Speed 23 mph    
Max Gust Speed 31 mph    
Visibility 10 miles    
Events      
Averages and records for this station are not official NWS values.
T = Trace of Precipitation, MM = Missing Value Source: NWS Daily Summary

Daily Weather History Graph

Daily Weather History Graph

Search for Another Location

Airport or City:

Trip Planner

Search our weather history database for the weather conditions in past years. The results will help you decide how hot, cold, wet, or windy it might be!

Date:

Astronomy

Apr. 29, 2013 Rise Set
Actual Time 6:47 AM CDT 8:18 PM CDT
Civil Twilight 6:21 AM CDT 8:45 PM CDT
Nautical Twilight 5:49 AM CDT 9:17 PM CDT
Astronomical Twilight 5:15 AM CDT 9:51 PM CDT
Moon No Moon Rise 10:14 AM CDT
Length of Visible Light 14h 24m
Length of Day
13h 30m
Waning Gibbous, 80% of the Moon is Illuminated
Apr 29
Waning Gibbous
May 2
Last Quarter
May 9
New
May 17
First Quarter
May 24
Full

Hourly Weather History & Observations

Time (CDT) Temp. Dew Point Humidity Pressure Visibility Wind Dir Wind Speed Gust Speed Precip Events Conditions
12:53 AM 63.0 °F 59.0 °F 87% 29.78 in 10.0 mi East 8.1 mph - N/A   Clear
1:53 AM 61.0 °F 57.9 °F 90% 29.77 in 10.0 mi ESE 9.2 mph - N/A   Clear
2:53 AM 60.1 °F 57.0 °F 90% 29.76 in 10.0 mi ESE 8.1 mph - N/A   Clear
3:53 AM 59.0 °F 55.9 °F 90% 29.76 in 10.0 mi ESE 8.1 mph - N/A   Clear
4:53 AM 57.9 °F 55.0 °F 90% 29.76 in 10.0 mi SE 9.2 mph - N/A   Clear
5:53 AM 57.9 °F 54.0 °F 87% 29.77 in 10.0 mi SSE 8.1 mph - N/A   Clear
6:53 AM 60.1 °F 53.1 °F 78% 29.77 in 10.0 mi South 9.2 mph - N/A   Clear
7:53 AM 62.1 °F 53.1 °F 72% 29.78 in 10.0 mi South 11.5 mph - N/A   Clear
8:53 AM 68.0 °F 52.0 °F 56% 29.78 in 10.0 mi SW 13.8 mph - N/A   Clear
9:53 AM 73.9 °F 50.0 °F 43% 29.77 in 10.0 mi WSW 16.1 mph - N/A   Clear
10:53 AM 79.0 °F 50.0 °F 36% 29.77 in 10.0 mi SSW 11.5 mph - N/A   Clear
11:53 AM 84.0 °F 48.0 °F 28% 29.77 in 10.0 mi SW 10.4 mph - N/A   Clear
12:53 PM 89.1 °F 41.0 °F 19% 29.74 in 10.0 mi SSW 16.1 mph 24.2 mph N/A   Clear
1:53 PM 90.0 °F 39.0 °F 17% 29.71 in 10.0 mi South 21.9 mph 29.9 mph N/A   Clear
2:53 PM 91.0 °F 37.9 °F 15% 29.69 in 10.0 mi South 18.4 mph 31.1 mph N/A   Clear
3:53 PM 91.9 °F 41.0 °F 17% 29.66 in 10.0 mi South 20.7 mph 28.8 mph N/A   Clear
4:53 PM 91.0 °F 37.0 °F 15% 29.65 in 10.0 mi South 16.1 mph 31.1 mph N/A   Clear
5:53 PM 90.0 °F 36.0 °F 15% 29.64 in 10.0 mi SSE 17.3 mph 27.6 mph N/A   Clear
6:53 PM 87.1 °F 39.9 °F 19% 29.63 in 10.0 mi SSE 17.3 mph 26.5 mph N/A   Clear
7:53 PM 82.9 °F 41.0 °F 23% 29.62 in 10.0 mi SSE 15.0 mph - N/A   Clear
8:53 PM 78.1 °F 46.0 °F 32% 29.64 in 10.0 mi SSE 17.3 mph - N/A   Clear
9:53 PM 75.9 °F 48.9 °F 38% 29.65 in 10.0 mi SSE 19.6 mph 26.5 mph N/A   Clear
10:53 PM 73.9 °F 50.0 °F 43% 29.66 in 10.0 mi SSE 23.0 mph 29.9 mph N/A   Clear
11:53 PM 72.0 °F 55.0 °F 55% 29.66 in 10.0 mi SSE 17.3 mph 26.5 mph N/A   Clear